This is the latest recevied weather packets stored in our database for station/object K5EAA-13. If no packets are shown the sender has not sent any weather packets the latest 10 day(s).
| Time | Temp. | Humidity | Pressure | Rain* | Wind** | Luminosity | Snow |
|---|---|---|---|---|---|---|---|
| 1787952074 | 37.78° C | 29% | 1014.8 hPa | 0 mm | - | 113 W/m² | - |
| 1787951773 | 37.78° C | 31% | 1014.9 hPa | 0 mm | - | 528 W/m² | - |
| 1787951469 | 37.78° C | 30% | 1015.1 hPa | 0 mm | - | 547 W/m² | - |
| 1787951165 | 38.33° C | 30% | 1015 hPa | 0 mm | - | 152 W/m² | - |
| 1787950861 | 38.33° C | 30% | 1015.4 hPa | 0 mm | - | 575 W/m² | - |
| 1787950556 | 38.33° C | 29% | 1015.2 hPa | 0 mm | - | 597 W/m² | - |
| 1787950252 | 37.78° C | 29% | 1015.4 hPa | 0 mm | - | 613 W/m² | - |
| 1787949949 | 37.78° C | 30% | 1015.6 hPa | 0 mm | - | 614 W/m² | - |
| 1787949648 | 37.78° C | 30% | 1015.8 hPa | 0 mm | - | 621 W/m² | - |
| 1787949343 | 37.78° C | 31% | 1015.8 hPa | 0 mm | - | 634 W/m² | - |
| 1787949038 | 37.78° C | 31% | 1015.8 hPa | 0 mm | - | 640 W/m² | - |
| 1787948733 | 37.78° C | 31% | 1015.8 hPa | 0 mm | - | 645 W/m² | - |
| 1787948428 | 37.78° C | 31% | 1015.9 hPa | 0 mm | - | 647 W/m² | - |
| 1787948124 | 37.78° C | 31% | 1016.2 hPa | 0 mm | - | 668 W/m² | - |
| 1787947823 | 37.78° C | 31% | 1016.3 hPa | 0 mm | - | 686 W/m² | - |
| 1787947522 | 37.78° C | 31% | 1016.1 hPa | 0 mm | - | 694 W/m² | - |
| 1787947217 | 38.33° C | 32% | 1016.2 hPa | 0 mm | - | 693 W/m² | - |
| 1787946916 | 37.78° C | 32% | 1016.3 hPa | 0 mm | - | 698 W/m² | - |
| 1787946614 | 36.67° C | 34% | 1016.6 hPa | 0 mm | - | 703 W/m² | - |
| 1787946310 | 36.67° C | 34% | 1016.5 hPa | 0 mm | - | 183 W/m² | - |
| 1787946009 | 37.78° C | 32% | 1016.6 hPa | 0 mm | - | 172 W/m² | - |
| 1787945709 | 38.89° C | 31% | 1016.7 hPa | 0 mm | - | 758 W/m² | - |
| 1787945404 | 38.33° C | 32% | 1016.8 hPa | 0 mm | - | 793 W/m² | - |
| 1787945099 | 37.78° C | 33% | 1016.7 hPa | 0 mm | - | 786 W/m² | - |
| 1787944796 | 37.78° C | 33% | 1016.7 hPa | 0 mm | - | 781 W/m² | - |
* Rain latest hour (hover to see other rain measurements)
** Current wind speed in m/s (hover to see current wind gust speed)